Date String (YYYY-MM-DD hh:mm:ss) UTC,Instrument flags,Ambient pressure (hPa),Sample flow (lpm),Bypass flow (lpm),Sample temperature (°C),Ambient temperature (°C),ASC tube jacket temperature (°C),LED temperature (°C),Box temperature (°C),Sample RH (%),Span deviation,Mass concentration (μg/m³),Mass concentration (μg/m³),Mass concentration (μg/m³)
DateTimeUTC,F1_M11,P_M11,Q1_M11,Q2_M11,T1_M11,T2_M11,T3_M11,T4_M11,T5_M11,U1_M11,ZSPAN_M11,X0_M11,X2_M11,X1_M11
2022-06-06 14:00:00,,0823.6,5.00,0.00,30.2,29.2,00.0,39.0,32.0,26.7,0000.0,0011.19,0003.83,0002.19
2022-06-06 14:01:00,,0823.6,4.99,0.00,30.2,29.2,00.0,39.0,32.0,25.9,0000.0,0011.08,0003.88,0002.21
2022-06-06 14:02:00,,0823.6,4.99,0.00,30.2,29.2,00.0,39.1,32.1,25.7,0000.0,0010.50,0003.86,0002.24
2022-06-06 14:03:00,,0823.6,5.00,0.00,30.2,29.2,00.0,39.1,32.1,25.7,0000.0,0010.04,0003.85,0002.25
2022-06-06 14:04:00,,0823.7,5.00,0.00,30.2,29.2,00.0,39.1,32.1,26.0,0000.0,0009.84,0003.89,0002.30
2022-06-06 14:05:00,,0823.7,5.00,0.00,30.2,29.3,00.0,39.1,32.1,25.6,0000.0,0009.03,0003.88,0002.34
2022-06-06 14:06:00,,0823.7,5.00,0.00,30.2,29.3,00.0,39.1,32.1,26.0,0000.0,0008.87,0003.88,0002.35
2022-06-06 14:07:00,,0823.7,5.00,0.00,30.3,29.3,00.0,39.1,32.1,26.0,0000.0,0008.87,0003.91,0002.34
2022-06-06 14:08:00,,0823.7,5.01,0.00,30.3,29.3,00.0,39.1,32.1,25.3,0000.0,0008.80,0003.87,0002.33
2022-06-06 14:09:00,,0823.6,5.00,0.00,30.3,29.3,00.0,39.1,32.1,25.2,0000.0,0009.23,0003.89,0002.34
2022-06-06 14:10:00,,0823.7,4.99,0.00,30.3,29.3,00.0,39.1,32.1,25.3,0000.0,0009.37,0003.91,0002.35
2022-06-06 14:11:00,,0823.6,5.01,0.00,30.3,29.3,00.0,39.1,32.2,24.9,0000.0,0009.94,0003.91,0002.35
2022-06-06 14:12:00,,0823.7,5.00,0.00,30.3,29.3,00.0,39.2,32.2,25.3,0000.0,0010.27,0003.89,0002.34
2022-06-06 14:13:00,,0823.6,5.00,0.00,30.3,29.4,00.0,39.2,32.2,24.9,0000.0,0010.70,0003.89,0002.34
2022-06-06 14:14:00,,0823.6,4.99,0.00,30.3,29.4,00.0,39.2,32.2,24.4,0000.0,0010.61,0003.87,0002.35
2022-06-06 14:15:00,,0823.6,5.00,0.00,30.3,29.4,00.0,39.2,32.2,25.4,0000.0,0010.65,0003.81,0002.36
2022-06-06 14:16:00,,0823.6,5.01,0.00,30.3,29.4,00.0,39.2,32.2,25.8,0000.0,0011.36,0003.85,0002.36
2022-06-06 14:17:00,,0823.7,4.99,0.00,30.3,29.4,00.0,39.2,32.2,26.2,0000.0,0011.64,0003.87,0002.37
2022-06-06 14:18:00,,0823.6,4.99,0.00,30.4,29.4,00.0,39.2,32.2,25.4,0000.0,0011.91,0003.89,0002.39
2022-06-06 14:19:00,,0823.6,5.00,0.00,30.4,29.4,00.0,39.2,32.2,25.9,0000.0,0011.81,0003.92,0002.43
2022-06-06 14:20:00,,0823.7,5.01,0.00,30.4,29.4,00.0,39.2,32.2,26.2,0000.0,0011.62,0003.88,0002.44
2022-06-06 14:21:00,,0823.7,5.00,0.00,30.4,29.4,00.0,39.2,32.2,27.2,0000.0,0011.69,0003.82,0002.43
2022-06-06 14:22:00,,0823.7,4.99,0.00,30.4,28.8,00.0,39.2,32.1,26.2,0000.0,0011.49,0003.82,0002.43
2022-06-06 14:23:00,,0823.7,5.01,0.00,30.3,28.0,00.0,39.1,31.9,27.3,0000.0,0011.72,0003.84,0002.45
2022-06-06 14:24:00,,0823.6,5.00,0.00,30.2,27.7,00.0,39.0,31.8,26.6,0000.0,0011.30,0003.87,0002.46
2022-06-06 14:25:00,,0823.6,5.00,0.00,30.1,27.7,00.0,39.0,31.7,26.1,0000.0,0011.49,0003.89,0002.45
2022-06-06 14:26:00,,0823.6,4.99,0.00,30.0,27.8,00.0,39.0,31.7,26.7,0000.0,0011.32,0003.88,0002.44
2022-06-06 14:27:00,,0823.7,5.02,0.00,30.0,27.9,00.0,39.0,31.7,26.0,0000.0,0010.64,0003.85,0002.43
2022-06-06 14:28:00,,0823.7,4.99,0.00,29.9,28.0,00.0,39.0,31.7,27.3,0000.0,0010.29,0003.80,0002.43
2022-06-06 14:29:00,,0823.6,5.00,0.00,29.9,28.1,00.0,38.9,31.7,25.8,0000.0,0009.92,0003.77,0002.43
2022-06-06 14:30:00,,0823.6,5.00,0.00,29.9,28.2,00.0,38.9,31.7,26.6,0000.0,0009.87,0003.74,0002.40
2022-06-06 14:31:00,,0823.7,4.99,0.00,29.9,28.3,00.0,38.9,31.7,24.8,0000.0,0009.63,0003.73,0002.38
2022-06-06 14:32:00,,0823.7,4.99,0.00,29.9,28.4,00.0,38.9,31.7,25.0,0000.0,0009.49,0003.78,0002.38
2022-06-06 14:33:00,,0823.7,5.01,0.00,29.9,28.5,00.0,38.9,31.7,25.2,0000.0,0009.37,0003.76,0002.35
2022-06-06 14:34:00,,0823.7,4.99,0.00,29.9,28.6,00.0,38.9,31.8,24.7,0000.0,0009.08,0003.77,0002.33
2022-06-06 14:35:00,,0823.7,5.01,0.00,29.9,28.6,00.0,38.9,31.8,25.0,0000.0,0009.04,0003.77,0002.31
2022-06-06 14:36:00,,0823.7,5.03,0.00,29.9,28.7,00.0,38.9,31.8,25.1,0000.0,0009.26,0003.78,0002.31
2022-06-06 14:37:00,,0823.7,5.01,0.00,29.9,28.7,00.0,38.9,31.7,24.4,0000.0,0009.33,0003.79,0002.30
2022-06-06 14:38:00,,0823.7,4.99,0.00,29.9,28.8,00.0,38.9,31.8,24.7,0000.0,0009.61,0003.79,0002.30
2022-06-06 14:39:00,,0823.7,5.01,0.00,29.9,28.8,00.0,38.9,31.8,24.7,0000.0,0010.51,0003.81,0002.29
2022-06-06 14:40:00,,0823.7,5.00,0.00,29.9,28.8,00.0,38.9,31.8,25.1,0000.0,0010.78,0003.83,0002.30
2022-06-06 14:41:00,,0823.7,4.99,0.00,30.0,28.9,00.0,38.9,31.9,25.3,0000.0,0010.82,0003.83,0002.30
2022-06-06 14:42:00,,0823.7,5.00,0.00,30.0,28.9,00.0,38.9,31.9,25.7,0000.0,0010.94,0003.86,0002.30
2022-06-06 14:43:00,,0823.7,5.01,0.00,30.0,28.9,00.0,38.9,31.9,23.8,0000.0,0012.11,0003.92,0002.33
2022-06-06 14:44:00,,0823.7,4.99,0.00,30.0,28.9,00.0,38.9,31.9,23.8,0000.0,0012.26,0003.93,0002.34
2022-06-06 14:45:00,,0823.7,5.01,0.00,30.0,29.0,00.0,38.9,31.9,24.4,0000.0,0012.07,0003.95,0002.35
2022-06-06 14:46:00,,0823.7,4.98,0.00,30.0,29.0,00.0,38.9,31.9,24.2,0000.0,0011.75,0003.88,0002.35
2022-06-06 14:47:00,,0823.7,5.00,0.00,30.0,29.0,00.0,38.9,31.9,24.0,0000.0,0012.22,0003.88,0002.38
2022-06-06 14:48:00,,0823.7,4.99,0.00,30.0,29.0,00.0,38.9,31.9,24.3,0000.0,0011.71,0003.87,0002.41
2022-06-06 14:49:00,,0823.8,5.00,0.00,30.0,29.0,00.0,38.9,31.9,25.6,0000.0,0011.47,0003.89,0002.41
2022-06-06 14:50:00,,0823.8,4.98,0.00,30.0,29.0,00.0,38.9,31.9,23.7,0000.0,0010.88,0003.94,0002.47
2022-06-06 14:51:00,,0823.7,5.00,0.00,30.0,29.1,00.0,38.9,31.9,23.4,0000.0,0010.55,0003.97,0002.49
2022-06-06 14:52:00,,0823.7,5.00,0.00,30.0,29.1,00.0,38.9,31.9,24.4,0000.0,0010.55,0004.00,0002.51
2022-06-06 14:53:00,,0823.7,5.00,0.00,30.0,29.1,00.0,38.9,31.9,25.2,0000.0,0010.62,0003.97,0002.50
2022-06-06 14:54:00,,0823.7,5.01,0.00,30.0,29.1,00.0,39.0,31.9,24.4,0000.0,0010.73,0003.92,0002.51
2022-06-06 14:55:00,,0823.7,5.01,0.00,30.1,29.1,00.0,39.0,31.9,22.4,0000.0,0010.62,0003.87,0002.51
2022-06-06 14:56:00,,0823.7,5.00,0.00,30.1,29.1,00.0,39.0,31.9,23.7,0000.0,0011.03,0003.84,0002.52
2022-06-06 14:57:00,,0823.7,4.99,0.00,30.1,29.1,00.0,39.0,32.0,24.0,0000.0,0011.10,0003.88,0002.53
2022-06-06 14:58:00,,0823.7,5.01,0.00,30.1,29.1,00.0,39.0,32.0,23.4,0000.0,0010.82,0003.88,0002.51
2022-06-06 14:59:00,,0823.6,4.99,0.00,30.1,29.1,00.0,39.0,32.0,22.8,0000.0,0011.22,0003.86,0002.49
